OK4PZ-5 Weather Reports


time (UTC)temp
F
wind
direction
speed
knots
gust
knots
rain 1hr
in
rain 24hr
in
rain mn
in
humidity
%
barometer
mb
20260507160002 61 277 1.7 3.5 0.00 0.00 0.00 53 1015.0
20260507154502 62 277 1.7 2.6 0.00 0.00 0.00 52 1014.0
20260507153002 62 254 0.9 2.6 0.00 0.00 0.00 50 1015.0
20260507151502 64 270 0.9 2.6 0.00 0.00 0.00 48 1014.0
20260507150002 65 317 2.6 6.1 0.00 0.00 0.00 45 1014.0
20260507144502 64 299 2.6 5.2 0.00 0.00 0.00 48 1014.0
20260507143001 63 0 2.6 7.0 0.00 0.00 0.00 49 1014.0
20260507141503 64 252 2.6 7.0 0.00 0.00 0.00 50 1014.0
20260507140001 67 276 1.7 3.5 0.00 0.00 0.00 45 1014.0
20260507134502 64 274 1.7 3.5 0.00 0.00 0.00 49 1015.0
20260507133002 65 212 5.2 7.8 0.00 0.00 0.00 47 1015.0
20260507131501 65 264 3.5 5.2 0.00 0.00 0.00 49 1015.0
20260507130002 64 241 1.7 5.2 0.00 0.00 0.00 51 1015.0
20260507124502 63 263 5.2 7.0 0.00 0.00 0.00 53 1015.0
20260507123002 64 271 7.0 12.2 0.00 0.00 0.00 53 1015.0
20260507121501 64 280 5.2 9.6 0.00 0.00 0.00 53 1015.0
20260507120002 66 227 2.6 7.0 0.00 0.00 0.00 49 1014.0
20260507114502 65 285 3.5 6.1 0.00 0.00 0.00 51 1014.0
20260507113002 64 265 3.5 7.0 0.00 0.00 0.00 53 1014.0
20260507111503 66 301 4.3 7.0 0.00 0.00 0.00 50 1014.0
20260507110003 64 295 2.6 7.0 0.00 0.00 0.00 52 1014.0
20260507104501 63 323 3.5 8.7 0.00 0.00 0.00 52 1014.0
20260507103002 62 313 5.2 7.0 0.00 0.00 0.00 52 1014.0
20260507101501 63 252 4.3 7.0 0.00 0.00 0.00 51 1014.0
20260507100002 62 260 5.2 7.0 0.00 0.00 0.00 53 1015.0
20260507094502 61 204 3.5 7.0 0.00 0.00 0.00 57 1014.0
20260507093002 61 218 1.7 6.1 0.00 0.00 0.00 57 1014.0
20260507091502 62 243 3.5 8.7 0.00 0.00 0.00 55 1014.0
20260507090002 61 243 3.5 5.2 0.00 0.00 0.00 58 1014.0
20260507084502 60 209 3.5 7.8 0.00 0.00 0.00 60 1014.0
20260507083001 59 262 1.7 7.8 0.00 0.00 0.00 61 1014.0
20260507081502 59 242 3.5 7.8 0.00 0.00 0.00 63 1014.0
20260507080002 59 244 4.3 11.3 0.00 0.00 0.00 64 1014.0
20260507074502 57 273 3.5 12.2 0.00 0.00 0.00 65 1014.0
20260507073004 58 285 4.3 7.0 0.00 0.00 0.00 67 1013.0
20260507071502 57 304 3.5 7.8 0.00 0.00 0.00 68 1013.0
20260507070003 56 250 4.3 7.8 0.00 0.00 0.00 73 1013.0
20260507064502 56 249 3.5 7.0 0.00 0.00 0.00 73 1014.0
20260507063002 55 264 3.5 7.0 0.00 0.00 0.00 77 1014.0
20260507061502 54 242 2.6 7.0 0.00 0.00 0.00 79 1013.0
20260507060002 53 236 1.7 5.2 0.00 0.00 0.00 82 1013.0
20260507054502 53 259 1.7 6.1 0.00 0.00 0.00 84 1013.0
20260507053001 51 262 1.7 5.2 0.00 0.00 0.00 86 1013.0
20260507051502 51 263 1.7 6.1 0.00 0.00 0.00 88 1013.0
20260507044502 51 259 0.9 2.6 0.00 0.00 0.00 90 1013.0
20260507043003 51 254 0.9 0.9 0.00 0.00 0.00 91 1012.0
20260507041502 51 230 0.0 2.6 0.00 0.00 0.00 91 1012.0
20260507040002 50 260 1.7 1.7 0.00 0.00 0.00 92 1012.0
20260507034502 50 247 0.9 0.9 0.00 0.00 0.00 92 1012.0
20260507033002 51 238 0.0 0.9 0.00 0.00 0.00 91 1012.0
20260507031502 51 260 0.0 1.7 0.00 0.00 0.00 91 1012.0
20260507030002 52 243 0.0 0.9 0.00 0.00 0.00 91 1011.0
20260507024502 52 260 0.0 0.9 0.00 0.00 0.00 91 1011.0
20260507023002 53 265 0.9 1.7 0.00 0.00 0.00 91 1011.0
20260507021502 53 262 0.9 2.6 0.00 0.00 0.00 89 1011.0
20260507020002 54 238 1.7 2.6 0.00 0.00 0.00 89 1011.0
20260507014502 54 245 3.5 5.2 0.00 0.00 0.00 89 1011.0
20260507011501 54 181 2.6 2.6 0.00 0.00 0.00 90 1011.0
20260507010002 54 272 2.6 3.5 0.00 0.00 0.00 90 1011.0
20260507004502 54 259 0.9 2.6 0.00 0.00 0.00 92 1011.0
20260507003002 53 288 0.9 1.7 0.00 0.00 0.00 94 1011.0
20260507001503 53 275 0.0 0.9 0.00 0.00 0.00 94 1011.0
20260507000002 54 283 0.0 0.9 0.00 0.00 0.00 94 1011.0
20260506234502 54 256 0.9 2.6 0.00 0.00 0.00 94 1011.0
20260506233001 54 263 0.9 0.9 0.00 0.00 0.00 94 1010.0
20260506231502 54 267 1.7 1.7 0.00 0.00 0.00 94 1010.0
20260506230002 55 226 2.6 6.1 0.00 0.00 0.00 94 1010.0
20260506224502 55 272 3.5 9.6 0.00 0.00 0.00 94 1010.0
20260506223003 55 268 6.1 7.0 0.00 0.00 0.00 93 1010.0
20260506221503 55 255 2.6 5.2 0.00 0.00 0.00 94 1009.0
20260506220002 56 229 3.5 6.1 0.00 0.00 0.03 93 1009.0
20260506214502 56 270 4.3 7.8 0.00 0.00 0.03 93 1009.0
20260506213002 56 243 3.5 5.2 0.00 0.00 0.03 91 1009.0
20260506211502 56 24 0.0 0.0 0.00 0.00 0.03 92 1008.0
20260506210002 56 288 0.0 2.6 0.00 0.00 0.03 92 1009.0
20260506204502 56 293 3.5 5.2 0.00 0.00 0.03 92 1009.0
20260506203003 57 283 1.7 7.0 0.00 0.00 0.03 91 1009.0
20260506201501 57 300 6.1 8.7 0.00 0.00 0.03 90 1008.0
20260506200002 59 297 6.1 11.3 0.00 0.00 0.03 84 1008.0
20260506194502 62 245 5.2 7.0 0.00 0.00 0.03 75 1008.0
20260506193002 62 89 0.9 2.6 0.00 0.00 0.03 74 1007.0
20260506191502 62 46 1.7 6.1 0.00 0.00 0.03 73 1006.0
20260506190001 61 36 2.6 3.5 0.00 0.00 0.03 71 1006.0
20260506184502 61 289 0.0 0.0 0.00 0.00 0.03 76 1006.0
20260506183003 61 290 0.9 1.7 0.00 0.00 0.03 70 1006.0
20260506181502 63 94 0.0 0.9 0.00 0.00 0.03 68 1005.0
20260506180002 65 126 0.0 0.0 0.00 0.00 0.03 60 1005.0
20260506174502 68 129 0.0 0.0 0.00 0.00 0.03 53 1005.0
20260506173002 69 137 1.7 1.7 0.00 0.00 0.03 50 1005.0
20260506171502 69 121 0.9 1.7 0.00 0.00 0.03 48 1005.0
20260506170002 70 128 1.7 1.7 0.00 0.00 0.03 48 1005.0
20260506164502 71 104 0.9 7.8 0.00 0.00 0.03 47 1005.0
20260506163002 72 179 0.9 3.5 0.00 0.00 0.03 47 1006.0
20260506161502 72 127 6.1 8.7 0.00 0.00 0.03 45 1006.0